User: anonymous
Location: Waldport
(44.4270°N, 124.0680°W)
Time: 16:34:41
(UTC-07:00)
Language:

Cosmos 1570 Rocket - Orbit

View from above orbital plane
View from above orbital plane
View from above satellite
View from above satellite

Ground track
Ground track

The orbit data is extracted from the following two-line orbital elements,

1 15032U 84056B   14243.75452567  .00000088  00000-0  40465-4 0  4689
2 15032 074.0721 141.2714 0017838 204.3101 214.2132 14.34397079580591
Epoch (UTC): 31 August 2014 18:06:31
Eccentricity: 0.0017838
inclination: 74.0721°
perigee height: 764 km
apogee height: 790 km
right ascension of ascending node: 141.2714°
argument of perigee: 204.3101°
revolutions per day: 14.34397079
mean anomaly at epoch: 214.2132°
orbit number at epoch: 58059

The dashed part of the orbit path shows where the satellite is in the earth's shadow,  

DLR